Weather History for Delaware, OH

Change the Weather History Date:

Tuesday, May 7, 2013

  Actual Average Record
Temperature  
Mean Temperature 61 °F -  
Max Temperature 71 °F 67 °F 87 °F (1936)
Min Temperature 51 °F 41 °F 28 °F (1970)
Degree Days  
Heating Degree Days 4    
Growing Degree Days 11 (Base 50)    
Moisture  
Dew Point 53 °F    
Average Humidity 74    
Maximum Humidity 94    
Minimum Humidity 53    
Precipitation  
Precipitation 0.00 in - - ()
Sea Level Pressure  
Sea Level Pressure 29.98 in    
Wind  
Wind Speed 6 mph (ENE)    
Max Wind Speed 16 mph    
Max Gust Speed 21 mph    
Visibility 10 miles    
Events Rain    
Averages and records for this station are not official NWS values.
T = Trace of Precipitation, MM = Missing Value Source: NWS Daily Summary

Daily Weather History Graph

Daily Weather History Graph

Search for Another Location

Airport:

Trip Planner

Search our weather history database for the weather conditions in past years. The results will help you decide how hot, cold, wet, or windy it might be!

Date:

Astronomy

May. 07, 2013 Rise Set
Actual Time 6:24 AM EDT 8:34 PM EDT
Civil Twilight 5:54 AM EDT 9:04 PM EDT
Nautical Twilight 5:17 AM EDT 9:41 PM EDT
Astronomical Twilight 4:37 AM EDT 10:21 PM EDT
Moon 4:58 AM EDT (5/7) 6:32 PM EDT (5/7)
Length of Visible Light 15h 09m
Length of Day
14h 09m
Waning Crescent, 5% of the Moon is Illuminated
May 7
Waning Crescent
May 9
New
May 18
First Quarter
May 25
Full
May 31
Last Quarter

Hourly Weather History & Observations

Time (EDT) Temp. Dew Point Humidity Pressure Visibility Wind Dir Wind Speed Gust Speed Precip Events Conditions
12:19 AM 59.0 °F 53.6 °F 82% 29.99 in 10.0 mi East 5.8 mph - N/A   Scattered Clouds
12:38 AM 57.2 °F 53.6 °F 88% 29.99 in 10.0 mi East 3.5 mph - N/A   Scattered Clouds
12:58 AM 57.2 °F 51.8 °F 82% 29.99 in 10.0 mi East 3.5 mph - N/A   Scattered Clouds
1:19 AM 57.2 °F 51.8 °F 82% 29.98 in 10.0 mi East 3.5 mph - N/A   Scattered Clouds
1:38 AM 55.4 °F 51.8 °F 88% 29.98 in 10.0 mi East 4.6 mph - N/A   Clear
1:58 AM 55.4 °F 51.8 °F 88% 29.97 in 10.0 mi East 5.8 mph - N/A   Scattered Clouds
2:19 AM 55.4 °F 51.8 °F 88% 29.96 in 10.0 mi ENE 4.6 mph - N/A   Overcast
2:38 AM 57.2 °F 51.8 °F 82% 29.97 in 10.0 mi East 5.8 mph - N/A   Overcast
2:58 AM 55.4 °F 51.8 °F 88% 29.96 in 10.0 mi East 4.6 mph - N/A   Overcast
3:19 AM 55.4 °F 51.8 °F 88% 29.96 in 10.0 mi Calm Calm - N/A   Overcast
3:38 AM 55.4 °F 51.8 °F 88% 29.97 in 10.0 mi Calm Calm - N/A   Overcast
3:58 AM 53.6 °F 51.8 °F 94% 29.97 in 10.0 mi NNW 3.5 mph - N/A   Overcast
4:19 AM 53.6 °F 51.8 °F 94% 29.97 in 10.0 mi North 4.6 mph - N/A   Overcast
4:38 AM 55.4 °F 51.8 °F 88% 29.97 in 10.0 mi North 3.5 mph - N/A   Overcast
4:58 AM 55.4 °F 51.8 °F 88% 29.97 in 10.0 mi North 4.6 mph - N/A   Overcast
5:19 AM 55.4 °F 51.8 °F 88% 29.97 in 10.0 mi North 4.6 mph - N/A   Overcast
5:38 AM 53.6 °F 51.8 °F 94% 29.97 in 10.0 mi North 4.6 mph - N/A   Scattered Clouds
6:18 AM 53.6 °F 50.0 °F 88% 29.97 in 10.0 mi North 3.5 mph - N/A   Scattered Clouds
6:38 AM 51.8 °F 50.0 °F 94% 29.98 in 10.0 mi North 3.5 mph - N/A   Scattered Clouds
6:59 AM 51.8 °F 50.0 °F 94% 29.98 in 10.0 mi North 4.6 mph - N/A   Clear
7:18 AM 53.6 °F 50.0 °F 88% 29.98 in 10.0 mi North 3.5 mph - N/A   Scattered Clouds
7:38 AM 53.6 °F 50.0 °F 88% 29.99 in 10.0 mi North 3.5 mph - N/A   Clear
7:59 AM 53.6 °F 51.8 °F 94% 29.99 in 10.0 mi North 4.6 mph - N/A   Scattered Clouds
8:18 AM 57.2 °F 51.8 °F 82% 29.99 in 10.0 mi North 5.8 mph - N/A   Clear
8:38 AM 59.0 °F 51.8 °F 77% 30.00 in 10.0 mi NNE 6.9 mph - N/A   Clear
8:59 AM 60.8 °F 51.8 °F 72% 30.00 in 10.0 mi NE 5.8 mph - N/A   Clear
9:18 AM 60.8 °F 51.8 °F 72% 30.00 in 10.0 mi NE 8.1 mph - N/A   Mostly Cloudy
9:38 AM 62.6 °F 51.8 °F 68% 30.00 in 10.0 mi East 4.6 mph - N/A   Mostly Cloudy
9:59 AM 60.8 °F 51.8 °F 72% 30.00 in 10.0 mi ENE 6.9 mph - N/A   Mostly Cloudy
10:18 AM 60.8 °F 51.8 °F 72% 30.00 in 10.0 mi NNE 4.6 mph - N/A   Overcast
10:38 AM 62.6 °F 51.8 °F 68% 30.00 in 10.0 mi ENE 6.9 mph - N/A   Overcast
10:59 AM 62.6 °F 51.8 °F 68% 30.00 in 10.0 mi NE 4.6 mph - N/A   Mostly Cloudy
11:18 AM 64.4 °F 51.8 °F 64% 29.99 in 10.0 mi NE 4.6 mph - N/A   Mostly Cloudy
11:38 AM 66.2 °F 53.6 °F 64% 29.99 in 10.0 mi NNE 9.2 mph - N/A   Mostly Cloudy
11:59 AM 64.4 °F 51.8 °F 64% 29.99 in 10.0 mi NE 8.1 mph - N/A   Mostly Cloudy
12:18 PM 64.4 °F 53.6 °F 68% 29.99 in 10.0 mi North 6.9 mph - N/A   Overcast
12:38 PM 66.2 °F 51.8 °F 60% 29.99 in 10.0 mi ENE 8.1 mph - N/A   Overcast
12:59 PM 68.0 °F 51.8 °F 56% 29.99 in 10.0 mi ENE 8.1 mph - N/A   Overcast
1:18 PM 68.0 °F 51.8 °F 56% 29.98 in 10.0 mi ENE 10.4 mph 16.1 mph N/A   Overcast
1:38 PM 68.0 °F 53.6 °F 60% 29.98 in 10.0 mi NE 9.2 mph - N/A   Overcast
1:58 PM 69.8 °F 51.8 °F 53% 29.97 in 10.0 mi ENE 8.1 mph - N/A   Overcast
2:18 PM 69.8 °F 53.6 °F 56% 29.97 in 10.0 mi NE 9.2 mph - N/A   Mostly Cloudy
2:39 PM 71.6 °F 53.6 °F 53% 29.97 in 10.0 mi ENE 15.0 mph 18.4 mph N/A   Mostly Cloudy
2:58 PM 69.8 °F 53.6 °F 56% 29.97 in 10.0 mi ENE 13.8 mph 18.4 mph N/A Rain Light Rain
3:18 PM 66.2 °F 53.6 °F 64% 29.97 in 10.0 mi East 10.4 mph 13.8 mph N/A   Overcast
3:39 PM 68.0 °F 53.6 °F 60% 29.97 in 10.0 mi East 9.2 mph 16.1 mph N/A   Mostly Cloudy
3:58 PM 68.0 °F 53.6 °F 60% 29.97 in 10.0 mi ENE 12.7 mph - N/A   Mostly Cloudy
4:18 PM 66.2 °F 55.4 °F 68% 29.96 in 10.0 mi East 12.7 mph - N/A   Overcast
4:39 PM 64.4 °F 55.4 °F 73% 29.96 in 10.0 mi East 6.9 mph - N/A   Overcast
4:58 PM 68.0 °F 55.4 °F 64% 29.95 in 10.0 mi East 6.9 mph - N/A   Scattered Clouds
5:19 PM 69.8 °F 55.4 °F 60% 29.95 in 10.0 mi ENE 8.1 mph - N/A   Scattered Clouds
5:39 PM 69.8 °F 55.4 °F 60% 29.95 in 10.0 mi East 9.2 mph - N/A   Scattered Clouds
5:58 PM 71.6 °F 53.6 °F 53% 29.95 in 10.0 mi East 16.1 mph 20.7 mph N/A   Mostly Cloudy
6:19 PM 64.4 °F 53.6 °F 68% 29.96 in 10.0 mi SE 13.8 mph - N/A   Overcast
6:39 PM 64.4 °F 55.4 °F 73% 29.96 in 10.0 mi SE 6.9 mph - N/A   Mostly Cloudy
6:58 PM 62.6 °F 53.6 °F 72% 29.96 in 10.0 mi SE 6.9 mph - N/A   Mostly Cloudy
7:19 PM 64.4 °F 53.6 °F 68% 29.96 in 10.0 mi SSE 5.8 mph - N/A   Overcast
7:39 PM 64.4 °F 53.6 °F 68% 29.97 in 10.0 mi ESE 4.6 mph - N/A   Overcast
7:58 PM 62.6 °F 55.4 °F 77% 29.97 in 10.0 mi SE 4.6 mph - N/A Rain Light Rain
8:19 PM 62.6 °F 55.4 °F 77% 29.98 in 10.0 mi Calm Calm - N/A   Overcast
8:39 PM 62.6 °F 55.4 °F 77% 29.98 in 10.0 mi Calm Calm - N/A   Overcast
8:58 PM 62.6 °F 55.4 °F 77% 29.98 in 10.0 mi Calm Calm - N/A   Overcast
9:19 PM 62.6 °F 55.4 °F 77% 29.99 in 10.0 mi East 3.5 mph - N/A   Overcast
9:38 PM 62.6 °F 53.6 °F 72% 29.99 in 10.0 mi ENE 5.8 mph - N/A   Mostly Cloudy
9:58 PM 62.6 °F 51.8 °F 68% 29.99 in 10.0 mi ENE 8.1 mph - N/A   Mostly Cloudy
10:19 PM 62.6 °F 50.0 °F 63% 29.99 in 10.0 mi ENE 9.2 mph - N/A   Mostly Cloudy
10:38 PM 62.6 °F 50.0 °F 63% 30.00 in 10.0 mi ENE 5.8 mph - N/A   Scattered Clouds
10:58 PM 60.8 °F 51.8 °F 72% 30.00 in 10.0 mi NE 6.9 mph - N/A   Clear
11:19 PM 60.8 °F 50.0 °F 68% 30.00 in 10.0 mi NE 5.8 mph - N/A   Clear
11:38 PM 60.8 °F 50.0 °F 68% 30.00 in 10.0 mi NE 6.9 mph - N/A   Clear
11:58 PM 59.0 °F 50.0 °F 72% 30.00 in 10.0 mi ENE 5.8 mph - N/A   Scattered Clouds